OneWeb SL0110

operational
NORAD ID: 47268 Int'l Des: 2020-100 Owner: ONEWEB Country: UK Constellation: oneweb
LEOCIRCULARPOLARONEWEB_TYPE

Über OneWeb SL0110

Beschreibung wird geladen...

Live-Position

3D-Globus wird geladen...

Nächste Überflüge

Höhenverlauf

Altitude vs Time

uPlot chart will show altitude changes over time

Zweizeiliger Elementsatz

1 47268U 20100L 25350.16673999 .00000324 00000-0 86319-3 0 9994
2 47268 87.8939 27.0100 0001710 91.6331 268.4993 13.12539283240548
Epoch: 16. Dez. 2025 • Age: 17 hours

Aktueller Status

Höhe 1222.5 km
Geschwindigkeit 7.25 km/s
Subsatellitenpunkt 59.84°N, 161.33°E
Startdatum 18. Dez. 2020
Alter 4.9 years
Typ internet

Technische Details

Klassifizierung Payload
Masse 148.00 kg
Trockenmasse 140.00 kg
Gesamtmasse 148.00 kg
Länge 1.30 m
Durchmesser 1.00 m
Spannweite 5.00 m
Form Trapezoid+2 pan
Hersteller ONEWUS
Bus-Typ ARROW
Phasenstatus In Orbit
Besitzer/Staat ONEWEB/UK

Große Konstellationen

Loading constellations...